This demonstration page uses our WeatherBlox Daily Observations layout. Learn more.

Left ArrowRight Arrow

Hourly Observations for September 29, 2015

Temp ( °F °C ) Dew Point ( °F °C ) Humidity (%) Winds ( mph kmh ) Pressure ( in mb ) Visibility ( mi km ) Precip ( " mm )
12:15 am 00:15 Cloudy 73 23 70 21 89 89 ESE 6 9 30.09 1019 10 16 0.00 0.00
12:35 am 00:35 Cloudy 72 22 70 21 94 94 ESE 3 6 30.09 1019 10 16 0.00 0.00
12:55 am 00:55 Cloudy 72 22 70 21 94 94 Calm 30.09 1019 10 16 0.00 0.00
1:15 am 01:15 Cloudy 72 22 70 21 94 94 Calm 30.09 1019 10 16 0.00 0.00
1:35 am 01:35 Cloudy 72 22 70 21 94 94 SW 3 6 30.09 1019 10 16 0.00 0.00
1:55 am 01:55 Cloudy 72 22 70 21 94 94 Calm 30.09 1019 10 16 0.00 0.00
2:15 am 02:15 Cloudy 72 22 70 21 94 94 WNW 6 9 30.09 1019 10 16 0.00 0.00
2:35 am 02:35 Cloudy 72 22 70 21 94 94 SSW 6 9 30.09 1019 10 16 0.00 0.00
2:55 am 02:55 Cloudy 72 22 70 21 94 94 SSW 6 9 30.09 1019 10 16 0.00 0.00
3:15 am 03:15 Cloudy 72 22 70 21 94 94 SSW 6 9 30.09 1019 10 16 0.00 0.00
3:35 am 03:35 Mostly Cloudy 70 21 70 21 100 100 SSE 5 7 30.06 1018 10 16 0.00 0.00
3:55 am 03:55 Cloudy 70 21 70 21 100 100 WSW 3 6 30.06 1018 7 11 0.00 0.00
4:15 am 04:15 Cloudy 70 21 70 21 100 100 ENE 3 6 30.06 1018 7 11 0.00 0.00
8:55 am 08:55 Cloudy with Mist and Fog 72 22 72 22 100 100 NNW 3 6 30.03 1017 4 6 0.00 0.00
9:35 am 09:35 Cloudy with Mist and Fog 73 23 73 23 100 100 ESE 3 6 30.03 1017 5 8 0.00 0.00
9:55 am 09:55 Cloudy with Mist and Fog 73 23 73 23 100 100 ENE 3 6 30.03 1017 5 8 0.00 0.00
10:15 am 10:15 Cloudy 75 24 73 23 94 94 ESE 7 11 30.03 1017 7 11 0.00 0.00
10:35 am 10:35 Cloudy 77 25 73 23 89 89 ESE 7 11 30.03 1017 7 11 0.00 0.00
10:55 am 10:55 Cloudy 77 25 73 23 89 89 ESE 8 13 30.03 1017 7 11 0.00 0.00
11:15 am 11:15 Cloudy with Mist and Fog 77 25 73 23 89 89 ESE 7 11 30.03 1017 5 8 0.00 0.00
11:35 am 11:35 Cloudy 79 26 73 23 84 84 E 6 9 30.00 1016 7 11 0.00 0.00
11:55 am 11:55 Cloudy 79 26 73 23 84 84 ESE 7 11 30.00 1016 7 11 0.00 0.00
12:15 pm 12:15 Cloudy 79 26 73 23 84 84 ESE 6 9 30.00 1016 7 11 0.00 0.00
12:35 pm 12:35 Cloudy with Haze 79 26 73 23 84 84 ESE 6 9 30.00 1016 4 6 0.00 0.00
12:55 pm 12:55 Cloudy 79 26 73 23 84 84 ESE 6 9 29.97 1015 7 11 0.00 0.00
1:15 pm 13:15 Mostly Cloudy 79 26 73 23 84 84 E 7 11 29.97 1015 10 16 0.00 0.00
1:35 pm 13:35 Cloudy with Rain 79 26 73 23 84 84 SE 9 15 29.97 1015 5 8 0.00 0.00
1:55 pm 13:55 Cloudy 79 26 75 24 89 89 E 6 9 29.94 1014 7 11 0.00 0.00
2:15 pm 14:15 Cloudy 79 26 73 23 84 84 ESE 7 11 29.94 1014 7 11 0.00 0.00
2:35 pm 14:35 Cloudy with Light Rain 79 26 73 23 84 84 E 7 11 29.94 1014 7 11 0.00 0.00
2:55 pm 14:55 Cloudy with Light Rain 77 25 75 24 94 94 ESE 8 13 29.91 1013 7 11 0.00 0.00
3:15 pm 15:15 Cloudy with Light Rain 77 25 75 24 94 94 ESE 6 9 29.91 1013 7 11 0.00 0.00
3:35 pm 15:35 Cloudy with Rain 77 25 75 24 94 94 E 5 7 29.91 1013 5 8 0.00 0.00
3:55 pm 15:55 Cloudy with Light Rain 75 24 75 24 100 100 ENE 3 6 29.91 1013 5 8 0.00 0.00
4:15 pm 16:15 Cloudy with Light Rain 75 24 75 24 100 100 Calm 29.91 1013 5 8 0.00 0.00
4:35 pm 16:35 Cloudy with Light Rain 75 24 75 24 100 100 ENE 3 6 29.88 1012 5 8 0.00 0.00
4:55 pm 16:55 Cloudy with Light Rain 75 24 75 24 100 100 ENE 5 7 29.88 1012 5 8 0.00 0.00
5:15 pm 17:15 Cloudy with Rain 75 24 75 24 100 100 NE 7 11 29.85 1011 5 8 0.00 0.00
5:35 pm 17:35 Cloudy with Heavy Rain 75 24 75 24 100 100 E 5 7 29.88 1012 3 4 0.00 0.00
5:55 pm 17:55 Cloudy with Heavy Rain 73 23 73 23 100 100 E 5 7 29.88 1012 3 4 0.00 0.00
6:15 pm 18:15 Cloudy with Heavy Rain 73 23 73 23 100 100 E 8 13 29.85 1011 4 6 0.00 0.00
6:35 pm 18:35 Cloudy with Heavy Rain 73 23 73 23 100 100 ENE 8 13 29.85 1011 4 6 0.00 0.00
6:55 pm 18:55 Cloudy with Heavy Rain 73 23 73 23 100 100 ENE 10 17 29.83 1010 4 6 0.00 0.00
7:15 pm 19:15 Cloudy 73 23 73 23 100 100 ENE 9 15 29.80 1009 4 6 0.00 0.00
7:35 pm 19:35 Cloudy 73 23 73 23 100 100 NE 12 19 29.80 1009 3 4 0.00 0.00
7:55 pm 19:55 Cloudy with Heavy Rain 73 23 73 23 100 100 NE 9 15 29.77 1008 2 3 0.00 0.00
8:15 pm 20:15 Cloudy with Heavy Rain 73 23 73 23 100 100 N 9 15 29.80 1009 2 2 0.00 0.00
8:35 pm 20:35 Cloudy with Heavy Rain 73 23 73 23 100 100 NNE 15 24 29.77 1008 1 1 0.00 0.00
8:55 pm 20:55 Cloudy with Heavy Rain 73 23 73 23 100 100 SSW 9 15 29.77 1008 4 6 0.00 0.00
9:15 pm 21:15 Cloudy with Heavy Rain 73 23 73 23 100 100 NE 8 13 29.77 1008 1 2 0.00 0.00
9:35 pm 21:35 Cloudy with Heavy Rain 72 22 72 22 100 100 NNE 12 19 29.74 1007 2 3 0.00 0.00
9:55 pm 21:55 Cloudy 72 22 72 22 100 100 W 6 9 29.77 1008 10 16 0.00 0.00
10:15 pm 22:15 Cloudy 72 22 72 22 100 100 N 7 11 29.77 1008 10 16 0.00 0.00
10:35 pm 22:35 Cloudy with Rain 72 22 72 22 100 100 NNW 6 9 29.77 1008 7 11 0.00 0.00
10:55 pm 22:55 Cloudy 72 22 72 22 100 100 N 3 6 29.74 1007 7 11 0.00 0.00
11:15 pm 23:15 Cloudy 72 22 72 22 100 100 N 3 6 29.74 1007 10 16 0.00 0.00
11:35 pm 23:35 Cloudy 72 22 72 22 100 100 WNW 7 11 29.77 1008 7 11 0.00 0.00
11:55 pm 23:55 Cloudy with Rain 72 22 72 22 100 100 Calm 29.77 1008 3 4 0.00 0.00

Powered by AerisWeather